Oxford, MS

12:51 PM CDT on March 23, 2017 (GMT -0500)
University-Oxford

Weather History for KUOX - January, 2013

Change the Weather History Date:

Saturday, January 12, 2013

  Actual Average Record
Temperature  
Mean Temperature 68 °F -  
Max Temperature 71 °F 45 °F 75 °F (2017)
Min Temperature 64 °F 25 °F -9 °F (1962)
Cooling Degree Days 2    
Growing Degree Days 18 (Base 50)    
Moisture  
Dew Point 64 °F    
Average Humidity 91    
Maximum Humidity 100    
Minimum Humidity 73    
Precipitation  
Precipitation 0.82 in - - ()
Sea Level Pressure  
Sea Level Pressure 29.93 in    
Wind  
Wind Speed 4 mph (South)    
Max Wind Speed 14 mph    
Max Gust Speed 24 mph    
Visibility 7 miles    
Events Rain    
Averages and records for this station are not official NWS values.
T = Trace of Precipitation, MM = Missing Value Source: NWS Daily Summary

Daily Weather History Graph

Daily Weather History Graph

Search for Another Location

Airport or City:

Trip Planner

Search our weather history database for the weather conditions in past years. The results will help you decide how hot, cold, wet, or windy it might be!

Date:

Astronomy

Jan. 12, 2013 Rise Set
Actual Time 7:04 AM CST 5:08 PM CST
Civil Twilight 6:37 AM CST 5:36 PM CST
Nautical Twilight 6:06 AM CST 6:07 PM CST
Astronomical Twilight 5:36 AM CST 6:37 PM CST
Moon 7:27 AM CST (1/12) 6:32 PM CST (1/12)
Length of Visible Light 10h 58m
Length of Day
10h 03m
New Moon, 1% of the Moon is Illuminated
Jan 12
New Moon
Jan 18
First Quarter
Jan 26
Full
Feb 3
Last Quarter
Feb 10
New

Hourly Weather History & Observations

Time (CST) Temp. Dew Point Humidity Pressure Visibility Wind Dir Wind Speed Gust Speed Precip Events Conditions
12:35 AM 64.4 °F 62.6 °F 94% 30.00 in 9.0 mi South 3.5 mph - N/A   Overcast
12:55 AM 64.4 °F 62.6 °F 94% 30.00 in 8.0 mi South 3.5 mph - N/A   Overcast
1:15 AM 64.4 °F 62.6 °F 94% 30.00 in 8.0 mi South 4.6 mph - N/A   Overcast
1:55 AM 64.4 °F 64.4 °F 100% 29.99 in 8.0 mi South 3.5 mph - N/A   Overcast
2:15 AM 64.4 °F 64.4 °F 100% 30.00 in 8.0 mi Calm Calm - N/A   Overcast
2:35 AM 64.4 °F 64.4 °F 100% 29.99 in 8.0 mi SSE 3.5 mph - N/A   Overcast
2:55 AM 64.4 °F 64.4 °F 100% 29.98 in 5.0 mi South 3.5 mph - N/A Rain Light Rain
3:15 AM 64.4 °F 64.4 °F 100% 29.99 in 5.0 mi South 3.5 mph - N/A   Overcast
3:35 AM 64.4 °F 64.4 °F 100% 29.98 in 3.0 mi South 3.5 mph - N/A Rain Light Rain
3:55 AM 64.4 °F 64.4 °F 100% 29.99 in 1.8 mi Calm Calm - 0.04 in Rain Light Rain
4:15 AM 64.4 °F 64.4 °F 100% 29.97 in 5.0 mi Calm Calm - N/A Rain Light Rain
4:35 AM 64.4 °F 64.4 °F 100% 29.97 in 5.0 mi Calm Calm - N/A   Overcast
4:55 AM 64.4 °F 64.4 °F 100% 29.97 in 5.0 mi Calm Calm - N/A Rain Light Rain
5:15 AM 64.4 °F 64.4 °F 100% 29.98 in 8.0 mi South 3.5 mph - N/A   Overcast
5:35 AM 64.4 °F 64.4 °F 100% 29.98 in 1.0 mi South 3.5 mph - 0.11 in Rain Rain
5:55 AM 64.4 °F 64.4 °F 100% 29.98 in 0.8 mi Calm Calm - 0.57 in Rain Heavy Rain
6:15 AM 64.4 °F 64.4 °F 100% 29.98 in 2.0 mi South 3.5 mph - 0.05 in Rain Light Rain
6:35 AM 64.4 °F 64.4 °F 100% 29.98 in 7.0 mi Calm Calm - 0.05 in   Overcast
6:55 AM 64.4 °F 64.4 °F 100% 29.99 in 6.0 mi Calm Calm - 0.05 in   Overcast
7:15 AM 64.4 °F 64.4 °F 100% 29.99 in 9.0 mi Calm Calm - N/A   Mostly Cloudy
7:35 AM 64.4 °F 64.4 °F 100% 29.99 in 3.0 mi South 4.6 mph - N/A Rain Light Rain
7:55 AM 64.4 °F 64.4 °F 100% 30.00 in 7.0 mi South 4.6 mph - 0.05 in Rain Light Rain
8:15 AM 64.4 °F 64.4 °F 100% 30.01 in 2.5 mi South 4.6 mph - 0.01 in Rain Light Rain
8:35 AM 64.4 °F 64.4 °F 100% 30.01 in 6.0 mi South 3.5 mph - 0.01 in Rain Light Rain
8:55 AM 64.4 °F 64.4 °F 100% 30.01 in 9.0 mi South 4.6 mph - 0.01 in   Mostly Cloudy
9:15 AM 64.4 °F 64.4 °F 100% 30.01 in 7.0 mi South 4.6 mph - N/A Rain Light Rain
9:35 AM 64.4 °F 64.4 °F 100% 30.01 in 3.0 mi South 4.6 mph - 0.02 in Rain Light Rain
9:55 AM 64.4 °F 64.4 °F 100% 30.01 in 2.5 mi SSE 4.6 mph - 0.06 in Rain Light Rain
10:15 AM 64.4 °F 64.4 °F 100% 30.00 in 1.8 mi South 5.8 mph - 0.02 in Rain Rain
10:35 AM 64.4 °F 64.4 °F 100% 29.99 in 5.0 mi South 6.9 mph - 0.04 in Rain Light Rain
10:55 AM 64.4 °F 64.4 °F 100% 29.99 in 7.0 mi South 5.8 mph - 0.04 in   Scattered Clouds
11:15 AM 64.4 °F 64.4 °F 100% 29.97 in 4.0 mi South 9.2 mph - N/A Rain Light Rain
11:35 AM 64.4 °F 64.4 °F 100% 29.96 in 5.0 mi South 5.8 mph 16.1 mph N/A Rain Light Rain
12:15 PM 66.2 °F 66.2 °F 100% 29.94 in 7.0 mi South 9.2 mph 16.1 mph N/A   Partly Cloudy
12:35 PM 69.8 °F 64.4 °F 83% 29.93 in 7.0 mi SSW 9.2 mph 23.0 mph N/A   Clear
12:55 PM 69.8 °F 64.4 °F 83% 29.92 in 7.0 mi SSW 9.2 mph 19.6 mph N/A   Scattered Clouds
1:15 PM 71.6 °F 64.4 °F 78% 29.92 in 7.0 mi South 5.8 mph 20.7 mph N/A   Mostly Cloudy
1:35 PM 71.6 °F 64.4 °F 78% 29.91 in 7.0 mi South 5.8 mph - N/A   Mostly Cloudy
1:55 PM 71.6 °F 64.4 °F 78% 29.92 in 7.0 mi SSW 8.1 mph - N/A   Scattered Clouds
2:35 PM 71.6 °F 64.4 °F 78% 29.91 in 7.0 mi South 4.6 mph - N/A   Mostly Cloudy
2:55 PM 71.6 °F 62.6 °F 73% 29.91 in 8.0 mi SSW 8.1 mph - N/A   Mostly Cloudy
3:15 PM 71.6 °F 62.6 °F 73% 29.91 in 7.0 mi South 5.8 mph - N/A   Mostly Cloudy
3:35 PM 71.6 °F 62.6 °F 73% 29.90 in 8.0 mi South 4.6 mph - N/A   Partly Cloudy
3:55 PM 71.6 °F 64.4 °F 78% 29.89 in 8.0 mi South 4.6 mph - N/A   Partly Cloudy
4:15 PM 71.6 °F 62.6 °F 73% 29.88 in 7.0 mi South 4.6 mph - N/A   Partly Cloudy
4:35 PM 69.8 °F 62.6 °F 78% 29.87 in 7.0 mi South 4.6 mph - N/A   Clear
4:55 PM 69.8 °F 62.6 °F 78% 29.87 in 8.0 mi South 3.5 mph - N/A   Clear
5:15 PM 69.8 °F 62.6 °F 78% 29.86 in 9.0 mi South 3.5 mph - N/A   Clear
5:35 PM 68.0 °F 62.6 °F 83% 29.86 in 9.0 mi South 6.9 mph - N/A   Clear
5:55 PM 68.0 °F 62.6 °F 83% 29.85 in 8.0 mi SSE 4.6 mph - N/A   Clear
6:15 PM 68.0 °F 62.6 °F 83% 29.84 in 9.0 mi SSE 5.8 mph - N/A   Clear
6:35 PM 68.0 °F 62.6 °F 83% 29.84 in 8.0 mi South 8.1 mph - N/A   Clear
6:55 PM 68.0 °F 62.6 °F 83% 29.84 in 8.0 mi South 6.9 mph - N/A   Clear
7:15 PM 68.0 °F 64.4 °F 88% 29.84 in 9.0 mi South 5.8 mph - N/A   Clear
7:35 PM 68.0 °F 64.4 °F 88% 29.85 in 8.0 mi South 6.9 mph - N/A   Clear
8:35 PM 68.0 °F 64.4 °F 88% 29.84 in 8.0 mi South 9.2 mph - N/A   Scattered Clouds
9:15 PM 68.0 °F 64.4 °F 88% 29.83 in 8.0 mi South 13.8 mph 20.7 mph N/A   Mostly Cloudy
9:35 PM 68.0 °F 64.4 °F 88% 29.82 in 8.0 mi South 8.1 mph 23.0 mph N/A   Mostly Cloudy
9:55 PM 68.0 °F 62.6 °F 83% 29.83 in 8.0 mi South 9.2 mph 20.7 mph N/A   Scattered Clouds
10:15 PM 68.0 °F 62.6 °F 83% 29.82 in 8.0 mi South 5.8 mph - N/A   Partly Cloudy
10:35 PM 68.0 °F 62.6 °F 83% 29.80 in 8.0 mi South 6.9 mph - N/A   Clear
10:55 PM 68.0 °F 62.6 °F 83% 29.81 in 9.0 mi SSW 9.2 mph 19.6 mph N/A   Clear
11:15 PM 68.0 °F 62.6 °F 83% 29.84 in 9.0 mi SSW 8.1 mph 23.0 mph N/A   Mostly Cloudy
11:35 PM 68.0 °F 62.6 °F 83% 29.84 in 8.0 mi SSW 6.9 mph 24.2 mph N/A   Overcast
11:55 PM 68.0 °F 62.6 °F 83% 29.83 in 9.0 mi SSW 9.2 mph 18.4 mph N/A   Overcast